#timestamp,LO_Frequency,Hit,StdDev 
1711177215.2,286047001.2,P
1711177235.0,286046998.1,N
1711177235.9,286046998.1,N
1711177255.8,286046999.1,N
1711177275.6,286046998.8,N
1711177295.4,286046999.2,N
1711177315.3,286046996.5,Y
1711177335.1,286046998.8,P
1711177355.9,286047000.8,P
1711177375.7,286047000.4,N
1711177395.5,286047000.3,N
1711177415.4,286047002.5,N
1711177435.2,286047002.6,N
1711177455.1,286047001.3,N
1711177456.0,286047001.3,N
1711177475.8,286047004.0,Y
1711177495.9,286047004.3,P
1711177515.7,286047003.9,N
1711177535.5,286047002.0,N
1711177555.4,286047002.7,N
1711177575.2,286047002.7,N
1711177595.0,286047002.4,N
1711177596.0,286047002.4,N
1711177615.8,286047002.4,N
1711177635.6,286047000.5,N
1711177655.5,286046999.8,N
1711177675.3,286047001.6,N
1711177695.2,286047001.9,N
1711177715.9,286047003.8,Y
1711177735.7,286047000.6,P
1711177755.6,286047000.9,N
1711177775.4,286047000.1,N
1711177795.3,286047000.9,N
1711177815.1,286046998.1,N
1711177816.0,286046998.1,N
1711177835.8,286046998.9,N
1711177855.7,286046999.3,N
1711177875.5,286046999.5,N
1711177895.3,286046998.4,N
1711177915.2,286046998.1,N
1711177935.0,286046999.3,N
1711177935.9,286046999.3,N
1711177955.8,286046998.7,N
1711177975.6,286046996.7,N
1711177995.4,286046998.3,N
1711178015.3,286046998.8,N
1711178035.1,286046999.3,N
1711178055.9,286046998.7,N
1711178075.7,286046999.5,N
1711178095.5,286046998.6,N
1711178115.4,286046998.9,N
1711178135.2,286046998.4,N
1711178155.0,286046999.3,N
1711178155.9,286046999.3,N
1711178175.8,286046998.7,N
1711178195.6,286046999.4,N
1711178215.5,286046998.9,N
1711178235.3,286046998.4,N
1711178255.1,286046999.5,N
1711178275.9,286046996.5,Y
1711178295.7,286046998.3,P
1711178315.6,286046998.7,P
1711178335.4,286047000.2,N
1711178355.2,286047001.0,N
1711178375.1,286046999.8,N
1711178376.0,286046999.8,N
1711178395.8,286046998.1,N
1711178415.7,286047000.0,N
1711178435.5,286047000.5,N
1711178455.4,286047000.5,N
1711178475.2,286047000.9,N
1711178495.0,286047002.6,N
1711178495.9,286047002.6,N
1711178515.8,286047001.9,N
1711178535.6,286047002.0,N
1711178555.4,286047001.8,N
1711178575.3,286047001.5,N
1711178595.1,286047001.8,N
1711178615.9,286047003.6,N
1711178635.7,286047004.3,N
1711178655.5,286047004.4,N
1711178675.4,286047002.2,N
1711178695.2,286047001.8,N
1711178715.1,286046999.8,N
1711178716.0,286046999.8,N
1711178735.8,286047002.4,N
1711178755.6,286047002.7,N
1711178775.5,286046999.9,N
1711178795.3,286047001.0,N
1711178815.2,286047000.8,N
1711178835.9,286047000.6,N
1711178855.7,286047002.3,N
1711178875.6,286047002.4,N
1711178895.4,286047003.9,N
1711178915.2,286047001.7,N
1711178935.1,286047001.7,N
1711178936.0,286047001.7,N
1711178955.8,286047004.2,Y
1711178975.7,286047002.8,P
1711178995.5,286046999.8,N
1711179015.3,286047002.3,N
1711179035.2,286047000.0,N
1711179055.0,286047000.9,N
1711179055.9,286047000.9,N
1711179075.8,286047000.8,N
1711179095.6,286046998.3,N
1711179115.4,286046999.0,N
1711179135.3,286046999.1,N
1711179155.1,286046997.6,N
1711179175.8,286046997.2,N
1711179195.7,286046997.1,N
1711179215.5,286046999.1,N
1711179235.4,286046998.7,N
1711179255.2,286046999.1,N
1711179275.0,286046999.2,N
1711179275.9,286046999.2,N
1711179295.8,286046998.4,N
1711179315.6,286046999.1,N
1711179335.4,286046999.2,N
1711179355.3,286046998.5,N
1711179375.1,286046998.5,N
1711179395.9,286047000.4,N
1711179415.7,286047000.8,N
1711179435.5,286047001.0,N
1711179455.4,286047001.2,N
1711179475.2,286046996.8,N
1711179495.0,286046998.6,N
1711179496.0,286046998.6,N
1711179515.8,286047001.2,N
1711179535.6,286047001.2,N
1711179555.5,286046998.4,N
1711179575.3,286046999.0,N
1711179595.1,286046996.5,N
1711179615.9,286046996.9,N
1711179635.7,286046999.5,N
1711179655.6,286046999.0,N
1711179675.4,286046997.3,N
1711179695.2,286046998.3,N
1711179715.1,286046998.5,N
1711179716.0,286046998.5,N
1711179735.8,286046998.5,N
1711179755.6,286047000.8,N
1711179775.5,286046999.9,N
1711179795.3,286046999.9,N
1711179815.2,286046998.3,N
1711179835.9,286046998.1,N
1711179855.7,286047001.0,N
1711179875.6,286047001.0,N
1711179895.4,286047000.7,N
1711179915.3,286047000.3,N
1711179935.1,286046999.9,N
1711179936.0,286046999.9,N
1711179955.8,286046998.6,N
1711179975.7,286046998.3,N
1711179995.5,286046998.8,N
1711180015.3,286046998.4,N
1711180035.2,286046998.6,N
1711180055.0,286046999.4,N
1711180055.9,286046999.4,N
1711180075.8,286046998.7,N
1711180095.6,286046998.3,N
1711180115.4,286046998.1,N
1711180135.3,286046999.1,N
1711180155.1,286046998.3,N
1711180175.9,286046998.5,N
1711180195.7,286046998.6,N
1711180215.5,286046998.3,N
1711180235.4,286046998.9,N
1711180255.2,286046998.9,N
1711180275.0,286046997.1,Y
1711180276.0,286046997.1,P
1711180295.8,286046999.3,N
1711180315.6,286046999.5,N
1711180335.5,286046999.2,N
1711180355.3,286046998.3,N
1711180375.1,286046998.5,N
1711180395.9,286046998.1,N
1711180415.7,286046998.8,N
1711180435.6,286046998.5,N
1711180455.4,286046999.3,N
1711180475.2,286047000.9,N
1711180495.1,286047000.0,N
1711180496.0,286047000.0,N
1711180515.8,286047000.9,N
1711180535.7,286046998.1,N
1711180555.5,286046998.7,N
1711180575.3,286046999.2,N
1711180595.2,286047000.8,N
1711180615.0,286047000.6,N
1711180615.9,286047000.6,N
1711180635.7,286047000.0,N
1711180655.6,286046998.4,N
1711180675.4,286047001.2,N
1711180695.3,286046998.7,N
1711180715.1,286046999.2,N
1711180735.8,286046999.5,N
1711180755.7,286046998.4,N
1711180775.5,286047001.2,N
1711180795.4,286047000.8,N
